Harlingen, TX

1:58 PM CDT on June 22, 2017 (GMT -0500)
Valley International

Weather History for KHRL - May, 2013

Change the Weather History Date:

Thursday, May 2, 2013

  Actual Average Record
Temperature  
Mean Temperature 75 °F 78 °F  
Max Temperature 89 °F 88 °F 103 °F (1953)
Min Temperature 61 °F 69 °F 52 °F (1942)
Degree Days  
Heating Degree Days 0 0  
Month to date heating degree days 0 0  
Since 1 July heating degree days 403 622  
Cooling Degree Days 10 13  
Month to date cooling degree days 27 26  
Year to date cooling degree days 672 640  
Growing Degree Days 26 (Base 50)    
Moisture  
Dew Point 63 °F    
Average Humidity 64    
Maximum Humidity 93    
Minimum Humidity 34    
Precipitation  
Precipitation 0.00 in 0.07 in 1.02 in (1966)
Month to date precipitation 0.00 0.14  
Year to date precipitation 5.31 5.57  
Sea Level Pressure  
Sea Level Pressure 30.00 in    
Wind  
Wind Speed 14 mph (NNE)    
Max Wind Speed 29 mph    
Max Gust Speed 35 mph    
Visibility 8 miles    
Events      
T = Trace of Precipitation, MM = Missing Value Source: NWS Daily Summary

Daily Weather History Graph

Daily Weather History Graph

Search for Another Location

Airport or City:

Trip Planner

Search our weather history database for the weather conditions in past years. The results will help you decide how hot, cold, wet, or windy it might be!

Date:

Astronomy

May. 02, 2013 Rise Set
Actual Time 6:52 AM CDT 8:03 PM CDT
Civil Twilight 6:27 AM CDT 8:27 PM CDT
Nautical Twilight 5:58 AM CDT 8:56 PM CDT
Astronomical Twilight 5:29 AM CDT 9:26 PM CDT
Moon 1:58 AM CDT (5/2) 1:33 PM CDT (5/2)
Length of Visible Light 13h 59m
Length of Day
13h 10m
Waning Gibbous, 47% of the Moon is Illuminated
May 2
Waning Gibbous
May 9
New
May 17
First Quarter
May 24
Full
May 31
Last Quarter

Hourly Weather History & Observations

Time (CDT) Temp. Heat Index Dew Point Humidity Pressure Visibility Wind Dir Wind Speed Gust Speed Precip Events Conditions
12:03 AM 75.2 °F - 71.6 °F 89% 29.86 in 8.0 mi ESE 10.4 mph - N/A   Overcast
12:52 AM 75.9 °F - 71.1 °F 85% 29.87 in 8.0 mi East 5.8 mph - N/A   Overcast
1:52 AM 75.0 °F - 71.1 °F 87% 29.86 in 8.0 mi East 8.1 mph - N/A   Overcast
2:52 AM 75.0 °F - 71.1 °F 87% 29.86 in 8.0 mi East 5.8 mph - N/A   Overcast
3:52 AM 75.0 °F - 71.1 °F 87% 29.88 in 7.0 mi ENE 5.8 mph - N/A   Overcast
4:00 AM 75.2 °F - 71.6 °F 89% 29.89 in 7.0 mi ENE 6.9 mph - N/A   Overcast
4:52 AM 75.0 °F - 71.1 °F 87% 29.92 in 8.0 mi NNE 6.9 mph - N/A   Overcast
5:52 AM 71.1 °F - 69.1 °F 93% 29.93 in 6.0 mi NNE 4.6 mph - N/A   Clear
6:52 AM 72.0 °F - 70.0 °F 93% 29.93 in 6.0 mi NNE 6.9 mph - N/A   Overcast
7:10 AM 71.6 °F - 69.8 °F 94% 29.93 in 5.0 mi NNE 6.9 mph - N/A   Overcast
7:52 AM 73.9 °F - 71.1 °F 91% 29.94 in 5.0 mi NE 4.6 mph - N/A   Clear
8:52 AM 77.0 °F - 70.0 °F 79% 29.96 in 9.0 mi NNE 5.8 mph - N/A   Partly Cloudy
9:52 AM 79.0 °F - 68.0 °F 69% 29.97 in 10.0 mi SE 3.5 mph - N/A   Clear
9:59 AM 80.6 °F 82.7 °F 66.2 °F 61% 29.98 in 10.0 mi East 3.5 mph - N/A   Scattered Clouds
10:52 AM 82.9 °F 84.6 °F 64.9 °F 54% 29.94 in 10.0 mi South 17.3 mph - N/A   Clear
11:52 AM 84.9 °F 86.6 °F 64.9 °F 51% 30.03 in 10.0 mi North 11.5 mph - N/A   Clear
12:52 PM 88.0 °F 90.3 °F 66.0 °F 48% 30.01 in 10.0 mi North 10.4 mph - N/A   Partly Cloudy
12:55 PM 87.8 °F 90.4 °F 66.2 °F 49% 30.00 in 10.0 mi North 11.5 mph - N/A   Mostly Cloudy
1:52 PM 82.9 °F 85.0 °F 66.0 °F 56% 30.01 in 10.0 mi North 13.8 mph - N/A   Overcast
2:52 PM 87.1 °F 85.7 °F 55.9 °F 35% 29.99 in 10.0 mi North 19.6 mph 23.0 mph N/A   Mostly Cloudy
3:52 PM 84.9 °F 84.2 °F 57.9 °F 40% 30.00 in 10.0 mi NNW 19.6 mph - N/A   Overcast
4:52 PM 80.1 °F 80.7 °F 59.0 °F 48% 30.02 in 3.0 mi North 24.2 mph 34.5 mph N/A   Haze
5:52 PM 78.1 °F - 57.0 °F 48% 30.04 in 8.0 mi North 19.6 mph 27.6 mph N/A   Mostly Cloudy
6:17 PM 78.8 °F - 57.2 °F 47% 30.05 in 8.0 mi North 18.4 mph 29.9 mph N/A   Overcast
6:52 PM 75.0 °F - 57.0 °F 53% 30.06 in 9.0 mi North 16.1 mph 24.2 mph N/A   Mostly Cloudy
7:04 PM 73.4 °F - 55.4 °F 53% 30.06 in 9.0 mi North 19.6 mph - N/A   Mostly Cloudy
7:11 PM 73.4 °F - 55.4 °F 53% 30.06 in 10.0 mi North 20.7 mph - N/A   Scattered Clouds
7:52 PM 72.0 °F - 54.0 °F 53% 30.09 in 10.0 mi North 19.6 mph 25.3 mph N/A   Overcast
8:52 PM 70.0 °F - 52.0 °F 53% 30.14 in 10.0 mi NNW 21.9 mph - N/A   Overcast
9:52 PM 70.0 °F - 52.0 °F 53% 30.18 in 10.0 mi North 16.1 mph - N/A   Overcast
10:52 PM 64.9 °F - 48.9 °F 56% 30.22 in 8.0 mi North 21.9 mph 31.1 mph N/A   Overcast
11:52 PM 63.0 °F - 46.9 °F 56% 30.22 in 10.0 mi North 23.0 mph 29.9 mph N/A   Overcast